User: anonymous   Login
Location: Lamoine Observatory
(44.4551°N, 68.3470°W)
Time: 10:53:49
(UTC-05:00)
Language:

Cosmos 1674 Rocket - Orbit

View from above orbital plane
View from above orbital plane
View from above satellite
View from above satellite

Ground track
Ground track

The orbit data is extracted from the following two-line orbital elements,

1 15945U 85069B   17050.55327468  .00000107  00000-0  99514-5 0  9996
2 15945  82.5252 243.1733 0018631 313.5826  46.3842 14.83908527703587
Epoch (UTC): 19 February 2017 13:16:42
Eccentricity: 0.0018631
inclination: 82.5252°
perigee height: 604 km
apogee height: 630 km
right ascension of ascending node: 243.1733°
argument of perigee: 313.5826°
revolutions per day: 14.83908527
mean anomaly at epoch: 46.3842°
orbit number at epoch: 70358

The dashed part of the orbit path shows where the satellite is in the earth's shadow,  

DLR